Weather History for Falls City, NE

Change the Weather History Date:

Monday, November 19, 2012

  Actual Average Record
Temperature  
Mean Temperature 54 °F -  
Max Temperature 66 °F 52 °F 77 °F (2007)
Min Temperature 41 °F 30 °F 15 °F (1989)
Degree Days  
Heating Degree Days 11    
Growing Degree Days 4 (Base 50)    
Moisture  
Dew Point 40 °F    
Average Humidity 63    
Maximum Humidity 83    
Minimum Humidity 44    
Precipitation  
Precipitation 0.00 in - - ()
Sea Level Pressure  
Sea Level Pressure 30.07 in    
Wind  
Wind Speed 10 mph (SW)    
Max Wind Speed 16 mph    
Max Gust Speed 21 mph    
Visibility 10 miles    
Events      
Averages and records for this station are not official NWS values.
T = Trace of Precipitation, MM = Missing Value Source: NWS Daily Summary

Daily Weather History Graph

Daily Weather History Graph

Search for Another Location

Airport:

Trip Planner

Search our weather history database for the weather conditions in past years. The results will help you decide how hot, cold, wet, or windy it might be!

Date:

Astronomy

Nov. 19, 2012 Rise Set
Actual Time 7:12 AM CST 5:02 PM CST
Civil Twilight 6:43 AM CST 5:31 PM CST
Nautical Twilight 6:10 AM CST 6:04 PM CST
Astronomical Twilight 5:38 AM CST 6:37 PM CST
Moon 12:16 PM CST (11/19) 11:30 PM CST (11/19)
Length of Visible Light 10h 48m
Length of Day
9h 49m
Waxing Crescent, 41% of the Moon is Illuminated
Nov 19
Waxing Crescent
Nov 20
First Quarter
Nov 28
Full
Dec 6
Last Quarter
Dec 13
New

Hourly Weather History & Observations

Time (CST) Temp. Windchill Dew Point Humidity Pressure Visibility Wind Dir Wind Speed Gust Speed Precip Events Conditions
12:53 AM 52.0 °F - 35.1 °F 53% 30.07 in 10.0 mi SSE 9.2 mph - N/A   Clear
1:53 AM 53.1 °F - 35.1 °F 50% 30.06 in 10.0 mi SSE 11.5 mph - N/A   Clear
2:53 AM 51.1 °F - 35.1 °F 54% 30.05 in 10.0 mi SSE 11.5 mph - N/A   Clear
3:53 AM 50.0 °F - 37.0 °F 61% 30.05 in 10.0 mi South 10.4 mph - N/A   Clear
4:53 AM 48.9 °F - 39.9 °F 71% 30.06 in 10.0 mi South 9.2 mph - N/A   Clear
5:53 AM 46.9 °F - 41.0 °F 80% 30.06 in 10.0 mi South 10.4 mph - N/A   Clear
6:53 AM 46.9 °F - 41.0 °F 80% 30.06 in 10.0 mi South 12.7 mph - N/A   Clear
7:53 AM 46.9 °F - 42.1 °F 83% 30.07 in 10.0 mi South 12.7 mph - N/A   Clear
8:53 AM 50.0 °F - 43.0 °F 77% 30.08 in 10.0 mi South 11.5 mph - N/A   Clear
9:53 AM 54.0 °F - 44.1 °F 69% 30.07 in 10.0 mi South 15.0 mph 20.7 mph N/A   Clear
10:53 AM 57.9 °F - 44.1 °F 60% 30.08 in 10.0 mi SW 15.0 mph 20.7 mph N/A   Clear
11:53 AM 61.0 °F - 45.0 °F 56% 30.06 in 10.0 mi WSW 10.4 mph - N/A   Clear
12:53 PM 64.0 °F - 45.0 °F 50% 30.03 in 10.0 mi WSW 11.5 mph - N/A   Clear
1:53 PM 66.0 °F - 44.1 °F 45% 30.03 in 10.0 mi WSW 16.1 mph - N/A   Clear
2:53 PM 66.9 °F - 44.1 °F 44% 30.03 in 10.0 mi West 11.5 mph - N/A   Clear
3:53 PM 64.0 °F - 42.1 °F 45% 30.03 in 10.0 mi West 9.2 mph - N/A   Clear
4:53 PM 57.0 °F - 39.9 °F 53% 30.04 in 10.0 mi WNW 6.9 mph - N/A   Clear
5:53 PM 55.9 °F - 39.0 °F 53% 30.06 in 10.0 mi West 9.2 mph - N/A   Clear
6:53 PM 52.0 °F - 37.9 °F 59% 30.08 in 10.0 mi Calm Calm - N/A   Clear
7:53 PM 48.9 °F - 37.9 °F 66% 30.10 in 10.0 mi WNW 3.5 mph - N/A   Clear
8:53 PM 46.0 °F 43.9 °F 37.0 °F 71% 30.11 in 10.0 mi WNW 4.6 mph - N/A   Clear
9:53 PM 43.0 °F 40.3 °F 36.0 °F 76% 30.12 in 10.0 mi WNW 4.6 mph - N/A   Clear
10:53 PM 42.1 °F 40.2 °F 36.0 °F 79% 30.11 in 10.0 mi NW 3.5 mph - N/A   Clear
11:53 PM 41.0 °F 37.1 °F 35.1 °F 79% 30.13 in 10.0 mi WNW 5.8 mph - N/A   Clear